Theta_e
305 304 303 302 303 303 303 303 303 304 306 305 304 303 305 305 304 303 303 301 301 304 305 306 306 306 307 307 307 309 309 309 310 310 309 309 309 310 309 308 308 307 308 311
305 305 304 305 305 305 305 306 305 304 306 306 304 305 304 304 305 305 305 304 304 304 304 305 305 305 305 305 306 307 308 308 309 309 310 310 310 310 310 309 308 307 307 308
305 305 304 305 305 306 305 306 307 307 305 304 304 300 301 304 305 307 307 306 305 304 303 303 304 304 304 304 304 305 306 306 307 308 309 309 310 309 309 309 308 308 308 308
304 304 305 305 306 302 306 306 307 307 301 300 303 300 303 304 308 308 307 305 304 303 303 303 303 303 303 303 304 304 305 306 307 309 310 309 309 309 309 309 309 309 308 309
304 305 306 307 307 302 306 306 306 306 297 296 302 301 303 305 309 309 307 306 304 303 301 301 302 302 303 304 304 305 305 306 307 309 310 310 309 309 309 309 309 309 309 308
304 304 304 306 306 306 307 306 304 304 293 298 301 302 303 306 311 308 307 306 305 303 303 302 302 303 303 304 305 305 306 308 309 310 311 311 310 309 309 309 309 309 309 309
301 305 305 305 306 305 304 298 295 299 297 302 294 298 305 307 309 309 307 306 304 303 303 303 303 304 304 304 305 305 306 307 308 310 312 312 311 310 309 309 309 309 309 309
298 302 306 305 305 306 306 305 297 299 301 303 302 304 304 309 308 308 306 305 305 304 305 304 304 305 304 304 304 304 305 306 307 309 312 312 311 310 310 310 310 310 310 309
305 305 307 308 309 307 308 304 309 309 302 309 300 303 304 309 309 310 308 307 305 306 306 305 305 304 304 304 305 305 304 304 306 308 310 311 309 310 310 310 310 310 310 310
306 305 309 310 308 309 308 309 310 306 302 303 303 301 307 307 310 310 310 307 305 307 306 304 304 304 304 304 304 304 304 304 305 307 310 310 310 311 310 311 310 311 311 310
306 302 310 310 309 306 309 309 308 306 310 306 310 306 302 308 308 308 307 306 306 307 306 304 303 302 302 302 303 303 303 303 305 307 309 312 312 313 312 312 312 311 311 310
307 303 302 307 310 306 307 307 308 309 308 309 304 306 311 309 309 308 308 308 307 306 306 302 301 301 301 301 302 302 302 302 303 307 311 315 314 313 311 309 309 309 310 309
307 308 302 311 312 310 311 310 310 310 309 310 305 307 311 309 308 308 308 308 307 306 304 301 300 300 299 299 300 301 301 301 301 305 311 314 315 314 312 311 310 310 309 309
309 310 308 307 308 310 312 311 310 309 313 308 307 307 309 309 309 308 307 307 305 304 302 300 299 298 298 298 298 299 300 300 301 304 308 312 314 315 315 314 313 312 311 310
307 309 309 310 309 309 310 310 311 311 311 311 309 308 309 308 307 307 307 306 305 304 301 300 299 298 298 298 297 298 299 299 301 303 306 309 312 313 314 315 315 315 315 315
308 311 308 307 308 308 310 310 311 311 312 311 311 312 310 308 306 307 307 306 305 303 301 300 298 298 297 297 297 297 298 299 300 302 302 303 306 307 307 308 309 311 312 313
307 309 309 308 306 306 307 306 308 309 309 311 312 310 307 307 307 306 305 305 305 303 301 299 298 297 297 297 296 296 297 299 299 300 301 301 302 303 304 305 305 305 305 306
306 306 308 308 304 307 304 303 306 308 308 308 309 308 306 306 304 303 303 304 303 301 300 298 297 298 297 297 296 295 297 298 298 299 300 301 301 301 302 303 303 303 303 303
303 304 306 308 305 304 305 307 308 307 305 305 306 306 305 305 306 304 304 302 301 299 298 298 299 298 298 297 296 294 295 296 298 298 298 300 301 301 301 300 300 300 300 300
302 303 307 306 306 309 302 305 307 304 302 305 305 305 304 304 307 305 302 302 301 300 300 299 299 299 298 297 296 295 294 294 295 296 297 298 299 300 300 300 300 299 299 298
305 307 308 307 307 305 302 303 306 305 301 306 308 307 303 305 303 302 303 302 301 300 300 300 300 299 299 298 296 295 294 294 294 295 296 297 297 298 299 299 299 299 298 298
303 302 304 305 305 304 301 306 304 299 303 306 307 306 303 302 302 302 302 301 299 299 300 300 299 299 299 298 297 296 295 294 294 293 294 295 296 296 297 297 297 297 296 295
303 302 302 303 303 301 302 303 302 302 303 305 305 304 304 303 302 301 301 299 298 299 300 300 300 300 300 299 298 296 296 295 294 293 293 293 294 294 294 295 295 295 295 294
297 297 300 301 300 301 302 301 300 301 302 301 302 302 303 303 302 301 299 299 298 300 299 301 300 299 299 300 299 298 297 296 294 293 293 292 292 292 293 293 293 293 293 293
298 296 298 298 298 298 299 297 296 297 297 299 298 298 299 300 301 300 300 299 299 300 301 301 300 299 300 300 300 299 299 297 295 294 293 292 291 291 291 291 291 292 292 291
296 299 300 300 297 298 296 299 297 298 298 296 295 295 296 296 297 299 299 300 300 300 302 301 301 300 301 300 300 300 299 298 296 295 294 293 291 290 291 290 289 289 289 291
Wind_Speed
5 8 4 3 3 3 5 3 0 1 3 4 5 7 17 16 7 10 10 6 7 6 8 15 18 18 19 18 18 17 17 19 21 25 27 28 30 31 32 34 33 34 32 31
6 4 1 5 5 6 5 3 3 5 4 3 6 16 13 9 5 5 6 7 6 7 9 15 18 19 22 25 25 23 23 23 24 24 27 30 31 32 31 30 32 33 32 34
6 2 1 4 5 5 4 4 2 2 7 2 9 7 6 4 7 8 6 2 2 5 9 13 22 24 27 26 27 25 29 30 29 29 30 32 31 34 32 31 32 33 30 32
6 3 3 4 4 4 2 1 2 4 6 2 5 5 7 4 3 5 5 7 7 9 12 11 19 23 24 26 29 31 32 29 27 26 26 29 29 26 28 30 33 33 31 30
3 2 4 5 1 3 2 2 2 2 2 4 1 2 8 4 3 5 7 9 8 9 8 13 19 25 28 28 28 31 30 29 28 28 28 30 29 30 30 32 32 31 31 31
3 1 3 2 3 3 1 3 6 3 4 2 4 4 5 3 2 5 5 7 9 10 13 15 21 23 25 26 25 27 26 25 23 25 28 31 32 30 27 31 32 32 32 32
6 4 4 2 2 5 6 5 3 5 4 5 1 2 8 5 3 5 7 8 10 10 13 15 17 24 25 25 24 23 21 23 23 24 27 30 31 31 31 31 29 29 29 30
3 5 2 3 4 2 1 3 4 5 2 5 1 5 5 4 5 6 6 7 8 10 9 11 15 19 21 24 25 24 21 21 25 25 27 27 27 27 30 32 31 30 29 30
4 2 2 1 2 3 1 1 1 1 0 3 3 7 6 5 6 7 6 8 7 8 9 10 15 19 22 24 27 26 25 23 23 25 25 23 20 23 27 30 32 32 32 30
4 2 3 3 3 1 2 1 2 1 1 4 5 5 5 4 8 10 10 9 8 8 10 10 14 20 23 25 26 24 21 21 21 23 18 18 18 20 24 26 28 28 27 26
3 4 1 3 7 8 3 2 5 3 3 4 3 6 6 7 8 10 8 7 6 8 10 11 13 17 21 24 24 21 20 19 18 17 14 12 17 19 19 21 23 23 24 23
4 4 4 9 5 8 5 6 5 3 3 3 3 6 7 8 8 8 7 6 6 7 8 8 13 16 18 20 21 22 21 21 21 12 10 11 12 14 15 16 17 17 18 18
5 3 1 2 1 2 5 5 4 2 3 6 3 5 4 6 8 9 8 6 6 7 7 8 11 13 17 19 19 19 21 22 23 14 8 9 4 8 13 15 15 14 15 16
5 3 5 5 4 3 4 4 7 7 3 3 8 10 14 8 10 9 7 6 7 6 6 6 8 11 17 19 18 20 22 24 24 16 10 11 8 7 6 9 12 13 13 13
3 4 3 9 13 10 13 13 10 12 13 7 3 8 16 14 8 8 4 4 6 6 6 6 7 9 16 20 22 22 23 25 25 20 14 12 10 11 5 2 2 4 6 8
3 4 3 6 10 10 13 15 15 17 17 19 19 24 21 18 8 5 7 7 7 7 5 6 5 10 14 18 22 26 23 22 22 22 21 17 15 12 12 9 7 2 0 3
3 2 5 5 6 8 7 9 15 8 6 17 14 18 9 8 7 7 8 7 8 7 6 6 5 7 11 14 16 20 22 20 20 21 21 21 18 15 13 11 9 10 8 6
2 1 2 5 6 3 6 4 5 12 11 14 12 11 7 7 7 7 6 6 8 6 6 5 5 8 10 13 14 14 16 19 18 20 21 21 20 17 14 12 11 10 9 9
5 3 3 3 3 8 6 2 5 6 6 6 13 15 10 3 1 7 7 7 7 6 8 7 5 5 8 9 10 11 12 13 16 18 18 17 15 14 13 13 12 11 9 9
5 4 3 2 2 4 4 1 2 3 4 4 4 6 5 5 2 6 4 4 8 10 8 8 5 5 5 6 6 7 8 8 9 9 9 10 10 11 10 9 9 8 9 10
3 3 9 8 6 8 9 6 3 1 5 1 1 3 5 5 6 3 2 4 8 11 12 10 9 9 7 5 5 4 4 5 5 5 4 4 5 5 5 5 5 6 7 8
7 6 5 6 6 9 8 5 7 6 3 3 3 3 5 7 7 5 7 7 7 10 13 13 13 13 10 8 7 7 7 5 4 4 3 3 3 2 1 1 3 3 4 6
3 7 5 10 7 5 7 6 7 5 5 4 4 6 7 7 6 7 7 8 9 14 18 17 18 17 15 13 13 12 11 8 6 5 5 3 3 2 2 1 1 1 1 2
5 6 4 0 6 16 17 12 7 6 7 7 6 7 4 7 7 8 7 7 6 15 19 20 18 19 21 17 17 18 12 10 9 8 6 5 4 4 2 1 1 1 1 1
6 6 7 7 13 13 16 10 8 7 6 3 4 3 6 6 9 8 7 8 11 17 20 20 22 23 25 19 19 19 17 14 14 12 10 8 7 5 3 1 0 1 1 2
7 10 7 9 9 6 7 2 5 5 5 6 6 6 5 6 8 7 7 13 14 16 22 21 24 24 26 22 22 22 19 18 17 16 15 13 11 9 7 4 2 1 1 2
Wind_Direction
25 65 82 98 68 107 104 90 321 276 22 334 272 285 287 286 266 274 269 288 358 10 326 352 348 343 335 332 324 313 300 289 287 285 282 275 276 281 275 269 268 264 260 260
40 79 132 97 64 82 65 82 333 296 359 359 320 293 281 293 270 264 11 66 18 339 339 334 333 331 329 322 316 305 293 287 284 283 281 277 276 278 278 276 270 267 262 257
99 140 51 75 54 76 38 101 30 288 327 45 331 318 337 331 3 64 47 61 349 334 328 328 328 325 323 318 316 308 298 292 285 280 279 277 277 267 264 263 264 264 263 258
77 360 67 74 73 96 110 50 57 12 37 296 45 277 306 347 335 44 2 357 333 329 329 322 319 314 311 305 304 303 298 291 287 280 273 273 261 258 256 258 270 268 262 264
250 65 47 63 61 103 162 9 340 82 88 47 336 75 270 304 271 340 339 335 326 324 319 316 314 309 305 301 299 302 301 292 290 285 272 267 258 256 258 257 261 264 264 260
74 37 64 76 49 83 318 51 35 53 79 353 237 138 275 233 251 308 295 310 326 322 324 320 318 316 309 308 306 304 298 293 282 278 274 265 253 251 248 251 252 258 264 264
354 341 331 54 52 4 56 46 358 355 8 224 188 73 249 213 201 238 282 302 314 321 323 325 324 322 322 319 315 309 302 296 293 290 286 261 263 252 244 246 248 252 258 262
114 334 204 180 169 157 78 134 151 219 228 268 340 235 254 178 214 258 260 278 308 311 309 311 314 317 319 319 315 313 310 301 293 298 290 265 262 248 248 246 251 255 258 260
147 257 111 40 52 117 212 260 254 266 263 276 258 285 293 265 277 320 316 305 293 316 320 320 327 328 324 319 316 309 303 297 293 301 300 265 266 259 255 259 258 258 259 260
187 67 195 133 81 13 147 143 155 85 45 291 284 272 238 294 297 292 309 296 287 320 326 335 338 335 328 322 322 322 313 301 296 294 300 268 264 264 258 258 257 257 262 261
132 95 193 141 207 181 168 226 205 204 222 195 294 265 209 215 245 268 275 284 303 324 331 330 335 335 324 319 323 324 337 332 321 304 301 289 273 271 266 262 263 264 264 263
191 158 215 215 250 177 187 192 177 153 232 234 173 272 194 211 240 249 288 294 315 308 314 320 327 330 330 330 335 342 342 346 350 347 320 307 273 266 263 261 263 264 262 261
187 221 345 330 27 135 225 198 191 165 149 219 160 261 213 239 264 264 278 286 294 296 328 323 333 334 337 339 344 344 348 352 352 355 2 45 19 276 276 276 275 271 268 266
171 245 207 203 216 146 212 210 202 187 199 223 233 282 277 262 255 281 277 268 276 294 312 317 324 333 341 341 347 352 355 356 357 9 24 49 37 4 325 291 282 276 276 272
176 259 239 259 261 254 255 244 218 207 221 216 274 232 271 280 265 264 252 243 270 290 310 314 322 333 344 344 348 359 359 0 3 11 31 34 29 30 14 11 309 298 283 277
202 272 323 278 266 252 257 251 236 229 228 238 253 273 276 277 280 226 237 245 260 270 282 300 329 336 341 348 349 354 360 2 10 21 22 29 35 35 34 33 30 43 2 264
212 225 315 272 316 321 287 241 212 203 209 219 234 242 268 279 261 247 248 233 247 257 270 298 321 322 333 349 354 354 358 12 22 23 24 26 25 25 30 33 45 48 47 55
157 90 263 285 329 270 247 280 199 205 237 221 246 252 230 237 257 255 235 222 239 236 248 269 295 322 342 349 356 355 3 15 28 31 29 29 28 28 31 34 40 49 51 54
169 118 289 277 277 290 291 226 156 177 279 213 232 257 261 254 15 282 233 218 221 212 224 227 264 302 333 344 347 354 6 14 22 27 29 30 29 32 36 41 39 37 41 47
128 142 178 332 294 258 252 249 132 88 283 210 202 259 234 139 209 263 234 218 212 213 217 226 243 262 300 331 335 346 358 6 14 12 17 23 35 46 46 42 41 46 56 59
162 205 219 235 258 281 246 231 98 55 237 197 246 285 155 193 214 228 199 207 215 224 226 230 236 253 266 281 298 301 319 335 346 347 348 9 34 48 63 78 82 83 87 90
173 161 197 192 218 271 179 92 169 212 221 209 234 227 213 240 266 248 235 233 219 224 227 230 234 245 253 250 259 266 269 284 296 303 311 331 338 7 25 86 108 106 113 106
220 194 184 196 216 241 210 218 219 183 209 231 223 240 232 235 233 236 236 230 230 232 236 235 235 245 248 244 240 248 262 255 261 270 278 289 297 315 331 278 220 176 157 148
245 172 217 166 258 237 245 252 239 218 233 245 242 256 248 253 260 253 244 242 233 237 236 238 235 241 249 245 242 247 256 251 249 254 261 266 269 272 271 273 240 202 187 195
212 152 198 258 278 276 264 242 228 245 225 242 274 254 259 266 266 252 255 246 242 247 249 242 238 241 251 254 249 250 249 245 246 250 250 246 244 243 228 207 181 177 33 307
188 211 204 236 197 201 256 239 175 203 241 242 254 287 281 261 268 269 262 259 256 252 256 246 246 248 256 254 252 252 247 243 245 247 248 245 242 238 234 231 211 195 198 201